Flag for Iran Weather past 2 weeks in Esfahãn, Iran

Now
90 °F

Passing clouds.


Feels Like: 86 °F
Forecast: 58 / 87 °F
Wind: 18 mph from Southwest

Location: Esfahan

Current Time: May 24, 2015 at 4:24:10 PM

Latest Report: May 24, 2015 at 4:00 PM


Visibility: 4 mi

Pressure: 29.98 "Hg

Humidity: 8%

Dew point: 21 °F

Location of EsfahãnLocation

Historic Weather in Esfahãn — Graph

°F

Esfahãn temperature yesterday

Maximum temperature yesterday: 93 °F (at 3:30 PM)
Minimum temperature yesterday: 57 °F (at 7:00 AM)
Average temperature yesterday: 77 °F

Past Weeks' High & Low Weather Summary

 TemperatureHumidityPressure
High93 °F (May 23, 3:30 PM)77% (May 10, 2:30 AM)30.21 "Hg (May 10, 2:30 AM)
Low46 °F (May 17, 6:00 AM)2% (May 20, 1:30 PM)29.89 "Hg (May 9, 4:00 PM)
Average72 °F23%30.05 "Hg
* Reported May 9 3:30 PM — May 24 3:30 PM, Esfahãn, Weather by CustomWeather, © 2015

Note: Actual official high and low records may vary slightly from our data, if they occured in-between our weather recording intervals... More about our weather records

Advertising

Esfahãn weather history for previous 24 hours

 ConditionsComfort  
Time TempWeatherWind HumidityBarometerVisibility
3:30 PM
Sun, May 24
90 °FPassing clouds.12 mph8%29.98 "Hg4 mi
3:00 PM90 °FClear.9 mph9%30.01 "Hg4 mi
2:30 PM90 °FClear.7 mph9%30.01 "Hg4 mi
2:00 PM88 °FSunny.16 mph9%30.01 "Hg4 mi
1:30 PM88 °FClear.12 mph8%30.04 "Hg4 mi
1:00 PM86 °FDuststorm.18 mph9%30.04 "Hg3 mi
12:30 PM84 °FDuststorm.12 mph10%30.07 "Hg3 mi
12:00 PM84 °FDuststorm.16 mph10%30.07 "Hg2 mi
11:30 AM84 °FDuststorm.12 mph12%30.07 "Hg2 mi
11:00 AM81 °FDuststorm.5 mph16%30.07 "Hg2 mi
10:30 AM79 °FDuststorm.5 mph16%30.07 "Hg2 mi
10:00 AM77 °FDuststorm.No wind11%30.07 "Hg3 mi
9:30 AM73 °FClear.No wind13%30.07 "Hg4 mi
9:00 AM72 °FSunny.5 mph15%30.07 "Hg4 mi
8:30 AM68 °FClear.No wind17%30.07 "Hg4 mi
8:00 AM61 °FSunny.5 mph22%30.07 "Hg4 mi
7:30 AM61 °FSunny.No wind23%30.04 "Hg10 mi
7:00 AM54 °FClear.No wind24%30.04 "Hg10 mi
6:30 AM54 °FClear.5 mph24%30.04 "Hg10 mi
6:00 AM54 °FClear.5 mph28%30.04 "Hg4 mi
5:30 AM54 °FClear.5 mph24%30.01 "Hg10 mi
5:00 AM54 °FClear.No wind22%30.01 "Hg10 mi
4:30 AM59 °FClear.5 mph25%30.01 "Hg10 mi
4:00 AM57 °FClear.5 mph27%30.01 "Hg10 mi
3:30 AM57 °FClear.5 mph21%30.01 "Hg10 mi
3:00 AM61 °FClear.7 mph20%30.01 "Hg10 mi
2:30 AM59 °FClear.5 mph21%30.01 "Hg10 mi
2:00 AM64 °FClear.No wind18%30.04 "Hg10 mi
1:30 AM66 °FClear.No wind17%30.04 "Hg10 mi
1:00 AM66 °FClear.5 mph17%30.04 "Hg10 mi
12:30 AM66 °FClear.7 mph18%30.04 "Hg10 mi
12:00 AM68 °FClear.5 mph18%30.04 "Hg10 mi
11:30 PM
Sat, May 23
68 °FClear.7 mph18%30.04 "Hg10 mi
11:00 PM70 °FClear.9 mph15%30.04 "Hg10 mi
10:30 PM73 °FClear.12 mph13%30.01 "Hg10 mi
10:00 PM75 °FPassing clouds.12 mph12%30.01 "Hg4 mi
9:30 PM79 °FPassing clouds.16 mph11%30.01 "Hg4 mi
9:00 PM81 °FPassing clouds.14 mph9%30.01 "Hg4 mi
8:30 PM82 °FPassing clouds.22 mph9%29.98 "Hg4 mi
8:00 PM84 °FPassing clouds.22 mph8%29.98 "Hg4 mi
7:30 PM86 °FPassing clouds.26 mph8%29.95 "Hg4 mi
7:00 PM88 °FPassing clouds.24 mph7%29.95 "Hg4 mi
6:30 PM90 °FPassing clouds.26 mph6%29.95 "Hg4 mi
6:00 PM90 °FPassing clouds.31 mph6%29.95 "Hg4 mi
5:30 PM91 °FPassing clouds.29 mph6%29.95 "Hg5 mi
5:00 PM91 °FPassing clouds.22 mph6%29.95 "Hg4 mi
4:30 PM93 °FPassing clouds.26 mph6%29.95 "Hg4 mi
4:00 PM93 °FSandstorm.29 mph6%29.95 "Hg3 mi
Weather by CustomWeather, © 2015

See weather overviewHow to use our weather pages